Temperature
8 9 9 10 12 13 13 13 13 13 13 13 13 14 15 15 14 15 15 15 15 15 15 15 15 16 16 16 16 16 16 17 16 16 16 16 17 17 17 17 16 16 15 15
8 9 10 11 11 11 12 12 12 12 12 13 13 13 14 14 14 14 14 15 14 14 14 14 15 15 16 16 16 16 16 16 16 16 17 17 17 17 17 17 16 16 16 15
8 9 10 10 10 11 11 12 12 12 11 11 12 14 14 13 13 12 12 12 13 13 13 13 14 14 15 15 16 16 16 16 16 16 16 16 16 16 16 16 17 17 16 16
8 9 9 9 10 11 10 11 12 11 12 12 12 14 14 13 13 12 12 12 12 11 12 12 12 13 14 15 15 15 16 16 16 16 16 15 15 15 16 16 16 17 16 16
8 9 9 9 10 11 10 10 11 11 11 11 12 13 14 13 13 12 12 11 11 11 11 11 12 13 13 14 14 15 15 15 15 15 15 15 15 15 15 15 15 16 16 16
8 9 10 10 10 10 9 10 9 10 10 10 12 13 14 13 13 12 12 11 10 10 10 10 11 12 13 13 14 14 14 14 14 14 14 14 14 15 14 14 15 15 15 15
7 8 8 9 8 8 9 9 9 9 10 11 11 11 14 13 12 12 12 11 10 10 10 10 10 11 12 12 13 13 13 13 14 14 14 14 14 14 14 14 14 14 14 14
8 7 8 8 9 8 9 10 10 11 11 12 9 11 13 12 11 11 10 10 10 10 9 10 10 10 11 12 12 12 12 13 13 13 13 13 13 13 13 13 13 13 13 13
9 7 7 8 8 9 8 9 10 10 9 11 12 11 11 11 11 11 11 10 10 9 9 9 9 10 10 11 11 11 12 12 12 12 12 13 13 12 12 12 12 12 12 12
9 7 7 7 8 8 9 9 9 9 10 12 12 12 12 11 11 11 11 11 10 9 9 9 9 9 10 10 10 10 11 11 11 11 11 12 12 12 11 11 11 11 11 11
9 8 7 7 8 8 8 8 9 10 10 11 12 13 12 12 12 11 11 10 10 9 8 8 8 8 9 9 9 9 9 10 10 10 10 10 10 10 10 10 10 10 10 10
8 9 7 7 7 8 9 9 9 9 9 9 11 12 11 12 12 11 10 10 9 8 8 7 7 7 8 8 8 8 8 8 9 9 9 9 9 9 9 9 9 9 9 9
9 9 7 7 7 7 8 8 9 9 8 9 10 12 10 11 11 10 10 10 9 8 7 7 6 7 7 7 7 7 7 7 8 8 8 8 8 8 8 8 8 8 8 8
9 9 9 9 9 8 8 8 8 9 8 9 10 11 11 11 11 11 10 10 9 8 7 6 6 6 6 6 6 6 6 6 7 7 7 7 7 7 7 7 7 7 6 6
9 9 8 8 8 8 8 8 8 8 9 9 10 10 11 11 11 11 10 9 8 7 6 6 5 5 5 5 5 5 6 6 6 6 6 6 6 5 5 5 5 5 5 5
9 8 8 8 7 8 8 8 8 8 9 9 9 10 11 11 10 9 10 9 8 7 6 5 5 5 5 5 5 5 5 5 5 5 5 4 4 4 5 4 4 4 4 4
8 8 8 8 7 7 8 9 8 8 8 9 9 10 11 10 10 10 9 8 7 6 5 5 5 4 4 4 4 4 4 4 4 4 4 4 4 4 4 3 3 3 3 3
8 8 8 8 7 7 9 9 9 9 9 9 9 10 10 10 9 8 8 7 7 6 5 5 4 4 4 4 4 4 3 3 4 3 3 3 3 3 2 2 2 2 2 1
8 8 7 7 8 8 9 8 8 8 9 9 9 9 9 9 8 9 7 7 6 6 5 4 4 4 3 3 3 3 3 3 3 3 2 2 2 2 1 1 1 1 1 0
7 8 8 7 7 8 9 9 8 9 9 9 9 9 9 8 10 10 7 6 6 5 5 4 4 3 3 3 3 2 2 2 2 2 2 2 1 1 1 1 0 0 -0 -0
6 6 7 7 7 9 9 8 8 9 9 9 8 8 8 9 9 7 6 6 5 5 4 4 3 3 2 2 2 2 2 2 2 2 1 1 1 0 0 0 -0 -0 -0 -1
7 7 7 7 7 8 9 8 9 9 8 8 8 8 7 7 6 6 5 5 4 4 4 3 3 2 2 2 2 2 2 1 1 1 1 1 0 0 -0 -0 -1 -1 -1 -1
8 8 8 8 9 8 7 8 7 7 7 7 7 7 6 6 6 5 5 4 4 4 3 2 2 2 2 1 1 1 1 1 1 1 1 1 0 -0 -0 -1 -1 -1 -1 -1
7 7 7 7 8 8 7 7 6 6 6 6 6 6 6 6 6 5 5 4 4 3 3 2 2 2 1 1 1 1 1 1 1 1 1 0 0 -1 -1 -1 -1 -1 -2 -2
8 7 7 7 8 7 7 6 6 6 6 6 6 6 6 6 5 5 4 4 4 3 3 2 2 2 1 1 1 1 1 1 1 1 1 0 -0 -1 -1 -1 -1 -2 -2 -2
6 7 7 8 7 7 7 5 5 5 5 5 6 6 6 5 5 5 4 4 4 3 3 2 2 2 1 1 1 1 1 1 1 1 0 -0 -0 -1 -1 -1 -2 -2 -2 -2
Wind_Speed
11 12 17 21 20 10 13 14 13 11 7 10 14 15 13 12 11 13 13 13 12 12 10 8 7 8 8 9 11 12 13 13 12 10 11 11 12 12 12 13 17 18 18 19
9 15 17 16 15 9 12 13 11 7 5 6 8 12 12 12 12 12 12 12 11 10 9 7 6 6 7 8 9 10 11 12 12 12 11 10 11 10 12 11 14 19 20 20
10 10 14 15 16 13 12 12 11 7 6 4 5 8 9 6 6 6 7 8 8 8 8 6 5 4 4 5 5 6 8 10 11 12 10 8 9 8 10 13 14 17 20 21
6 8 14 16 17 15 10 8 8 7 6 5 4 5 5 5 5 4 3 3 3 3 3 3 2 2 2 3 3 4 5 7 8 9 10 13 12 13 15 13 13 15 17 19
7 11 16 15 14 13 6 7 6 5 4 3 5 6 4 6 6 5 4 3 2 1 1 1 1 0 1 2 2 3 4 4 5 7 9 12 13 14 13 13 14 14 14 16
5 5 8 8 8 10 10 8 5 3 3 6 8 8 5 6 7 7 5 5 4 4 3 3 2 2 2 3 3 2 2 3 4 6 8 10 13 14 14 15 14 13 11 12
5 4 3 6 9 8 9 8 5 5 6 6 5 6 4 5 6 6 6 5 4 4 4 4 4 4 4 5 5 4 3 3 4 5 7 9 11 13 15 15 14 14 12 11
7 6 4 5 6 8 10 8 4 5 6 4 5 6 3 4 4 5 4 3 3 4 4 4 4 4 5 5 5 5 5 5 5 5 6 7 9 9 10 12 12 12 11 11
6 5 4 4 4 8 8 6 1 1 1 3 5 4 3 5 7 7 5 3 3 4 4 4 4 5 5 5 6 6 6 6 6 6 7 7 8 9 10 11 11 9 9 7
4 6 5 4 6 3 2 6 4 4 4 4 5 5 7 14 13 9 5 3 4 4 4 4 4 5 5 5 6 6 7 7 7 7 6 6 7 8 8 7 7 7 8 7
4 6 6 5 5 7 6 5 4 3 2 3 3 3 4 14 13 9 4 3 3 3 3 3 3 4 5 5 6 6 7 7 7 8 7 7 6 6 5 4 5 5 4 5
3 4 5 3 1 2 5 6 6 4 4 3 2 1 4 10 10 6 1 3 3 2 2 2 2 3 4 5 6 6 7 7 7 7 7 6 6 5 3 2 2 1 2 3
5 5 6 4 3 4 5 5 5 3 2 3 3 3 4 7 6 3 3 4 3 2 1 0 1 2 4 5 5 6 6 7 7 7 6 6 6 6 5 4 4 4 4 5
3 3 3 4 3 7 7 8 9 7 4 4 5 2 5 7 6 4 5 4 3 2 1 0 1 2 3 4 4 5 6 6 6 6 6 6 6 6 6 7 8 8 8 8
2 2 2 2 3 5 6 10 13 12 9 6 4 5 6 6 6 7 6 5 4 2 1 0 1 2 3 3 4 5 5 5 5 6 6 7 7 8 8 9 10 10 11 10
2 3 3 2 2 3 5 9 13 13 13 13 10 10 8 6 5 6 7 6 4 2 1 0 1 1 2 3 3 4 5 5 5 6 7 7 8 9 9 10 10 11 11 11
3 4 2 2 1 2 6 10 14 10 10 10 13 10 6 6 7 7 6 5 4 2 1 1 1 1 1 2 2 3 4 4 6 7 7 7 8 9 9 10 11 11 11 11
4 4 2 2 2 5 0 1 6 11 11 12 11 9 7 8 8 7 6 4 2 1 2 2 1 2 2 2 3 3 4 5 7 7 8 8 8 9 9 10 11 11 10 10
2 3 3 2 3 4 3 3 5 6 5 8 12 11 9 7 6 3 2 1 1 1 2 2 2 3 3 3 4 5 5 6 7 8 7 7 8 9 10 10 10 10 10 10
2 2 3 3 3 3 1 2 3 4 3 2 4 4 4 2 4 1 3 2 2 3 3 3 4 4 4 4 5 6 6 6 7 7 7 8 8 9 9 9 9 9 9 9
4 3 4 5 4 4 1 2 4 4 2 2 2 2 3 3 3 1 2 2 3 3 4 5 5 4 4 5 6 6 6 6 7 8 8 9 9 9 9 9 8 9 9 9
7 5 5 5 6 4 2 4 4 1 2 1 2 3 3 4 3 2 2 3 4 5 5 5 5 5 5 5 6 7 7 7 7 8 9 9 8 8 7 9 8 8 8 8
6 6 3 5 4 2 1 2 1 2 2 3 3 4 4 4 4 3 3 4 5 6 6 6 6 6 5 5 6 8 7 7 8 9 9 9 8 7 7 7 7 6 6 5
4 4 4 4 5 3 3 3 2 2 3 4 4 5 4 5 4 4 4 5 6 6 7 7 7 7 6 6 6 7 8 8 9 9 8 8 7 7 6 5 5 5 4 4
4 5 5 6 4 3 2 1 1 2 3 3 4 4 4 5 5 4 4 5 6 7 7 7 7 7 7 7 7 7 8 9 9 9 8 7 6 6 6 5 4 4 3 2
5 6 6 4 2 2 1 1 3 4 4 5 5 5 4 4 5 5 5 5 6 8 8 8 8 8 8 8 8 8 8 9 9 8 7 6 6 5 5 6 6 7 6 6
Wind_Direction
177 184 193 192 198 213 193 194 198 200 180 206 225 238 242 245 244 244 244 243 243 245 249 249 242 233 227 226 227 226 223 219 214 211 212 215 221 223 223 225 225 223 220 217
172 198 196 190 189 185 183 189 189 174 175 215 233 247 248 246 244 246 247 243 241 242 242 242 241 234 228 225 226 228 227 225 219 218 217 220 223 226 226 225 228 226 223 220
184 183 180 183 185 186 190 195 185 169 163 192 256 248 226 222 225 231 237 242 243 242 242 244 241 235 231 233 235 234 233 232 227 226 224 223 224 229 227 226 227 226 224 222
174 170 175 182 189 188 189 192 180 169 189 198 227 240 192 176 171 172 179 188 207 218 226 230 229 227 237 254 259 253 248 241 236 230 226 223 223 227 230 231 231 230 226 225
163 171 175 184 188 186 166 156 166 185 209 231 215 242 196 169 165 147 129 116 111 125 149 151 137 30 346 322 301 283 269 257 251 240 232 232 235 238 242 240 239 236 231 228
131 157 178 178 165 162 133 128 117 137 203 235 214 220 208 181 169 145 123 101 83 80 90 90 81 66 42 23 9 344 302 277 269 257 245 237 240 243 246 245 243 240 237 231
129 131 123 142 136 148 162 160 164 183 204 222 163 216 226 149 155 151 132 100 69 69 77 73 64 53 39 26 16 2 346 320 301 278 261 252 249 248 248 248 248 245 242 236
146 144 148 156 163 167 181 194 204 199 199 174 176 221 171 146 160 158 141 99 67 62 59 56 48 38 31 21 11 2 351 336 326 305 285 270 260 254 252 251 250 249 247 243
145 124 103 117 129 154 166 195 256 114 105 208 199 212 203 160 163 161 149 105 62 44 41 41 37 28 18 11 6 358 348 340 335 323 305 287 275 264 260 257 254 253 249 243
119 124 131 128 113 61 161 154 167 191 199 216 195 205 183 171 168 162 145 83 39 23 23 25 23 16 9 4 359 357 353 345 339 333 322 307 293 281 272 264 256 250 245 233
117 125 137 152 180 170 153 169 188 182 240 242 206 161 151 170 165 156 131 42 6 359 359 5 9 8 5 3 0 357 354 350 347 344 336 327 318 308 296 275 262 253 237 218
122 125 128 128 57 206 200 188 180 191 198 219 259 127 116 167 165 165 160 339 335 337 339 349 5 7 6 3 0 358 355 354 351 348 346 347 346 347 346 337 317 252 196 179
144 140 134 146 172 187 199 191 191 157 149 195 221 137 124 164 179 207 280 310 321 318 309 332 18 15 9 2 360 359 360 359 357 359 2 9 13 21 30 39 53 75 96 108
143 156 198 186 162 171 188 190 188 185 199 209 229 202 175 189 212 264 299 308 315 307 267 344 24 23 12 5 3 3 8 7 7 14 24 31 33 42 53 62 71 78 87 94
142 135 119 93 125 165 195 196 197 209 216 224 229 230 227 228 259 288 300 307 307 301 277 5 25 24 18 15 16 16 18 20 24 35 42 44 49 58 65 71 77 81 84 89
115 130 132 126 148 203 227 220 213 220 228 237 252 266 264 268 272 282 291 298 294 287 256 190 59 37 28 24 23 24 30 35 47 57 56 58 63 68 71 76 81 84 86 88
152 156 165 175 166 243 249 227 212 212 217 223 236 244 256 274 282 292 296 292 277 265 227 198 140 83 48 39 39 44 47 59 68 69 69 68 72 75 77 81 84 85 87 89
161 152 152 170 200 236 145 101 209 218 230 227 238 250 261 274 290 289 283 264 248 219 195 172 144 123 105 93 87 84 80 82 81 77 74 75 80 82 83 85 86 87 88 89
163 163 167 197 241 271 272 204 185 199 237 231 235 252 266 282 285 256 176 178 203 173 158 149 141 138 132 120 113 108 98 92 88 83 79 83 89 91 91 89 89 89 91 91
127 163 189 200 243 248 116 118 173 191 213 169 211 241 254 257 269 263 141 149 141 133 136 136 135 134 131 126 127 119 106 97 91 91 90 90 92 95 96 96 96 94 94 94
173 185 207 218 244 270 275 153 164 207 132 142 222 259 250 247 282 350 152 173 157 147 141 140 141 137 133 136 132 119 110 101 102 103 99 95 96 98 101 99 98 100 100 99
195 196 203 208 226 244 128 158 193 5 44 262 282 288 275 272 280 234 205 184 167 157 152 151 146 137 137 142 135 123 117 115 114 110 105 102 102 103 104 104 102 103 107 105
213 216 214 218 233 35 155 203 321 330 288 296 298 299 286 271 258 231 212 193 179 169 163 160 152 142 141 145 142 132 130 130 123 115 110 107 104 102 107 111 114 113 113 112
216 207 226 251 257 252 247 256 288 283 277 291 293 289 270 265 260 238 212 195 183 176 170 165 159 154 150 146 140 137 138 137 130 122 118 116 113 109 108 108 115 118 120 122
218 188 214 241 260 263 221 174 341 328 314 308 307 290 272 264 254 236 215 199 188 178 174 171 170 163 156 150 144 145 147 145 136 130 127 123 119 121 116 106 97 106 103 117
206 203 210 231 223 235 221 14 341 321 313 309 305 298 283 260 252 234 216 199 186 179 173 172 171 165 160 157 152 153 155 152 144 140 138 135 135 132 129 123 107 83 92 100
Height
1465 1468 1467 1467 1470 1470 1472 1477 1480 1481 1486 1488 1486 1486 1485 1486 1487 1487 1487 1487 1488 1488 1490 1491 1492 1493 1495 1497 1499 1501 1504 1506 1507 1509 1510 1511 1513 1514 1516 1517 1519 1520 1521 1523
1464 1464 1463 1468 1472 1474 1474 1477 1479 1484 1487 1486 1484 1483 1481 1482 1482 1483 1482 1483 1484 1484 1485 1486 1487 1488 1490 1492 1494 1496 1498 1500 1502 1503 1505 1506 1508 1509 1510 1511 1513 1514 1515 1516
1458 1461 1465 1468 1471 1474 1474 1475 1477 1481 1486 1487 1486 1478 1477 1478 1480 1480 1480 1480 1480 1480 1481 1482 1482 1483 1484 1486 1488 1490 1492 1494 1496 1497 1499 1500 1501 1502 1504 1505 1506 1507 1508 1509
1460 1461 1465 1468 1470 1471 1475 1476 1478 1481 1481 1479 1483 1472 1471 1474 1476 1477 1477 1477 1477 1477 1477 1478 1478 1479 1480 1482 1484 1485 1487 1489 1490 1491 1492 1493 1494 1495 1496 1498 1499 1500 1501 1502
1458 1460 1463 1466 1468 1471 1475 1478 1480 1481 1481 1481 1480 1476 1466 1472 1473 1475 1476 1476 1476 1475 1475 1475 1475 1476 1477 1478 1479 1480 1482 1483 1484 1485 1486 1487 1487 1489 1490 1491 1492 1493 1494 1495
1459 1461 1463 1465 1469 1473 1477 1481 1484 1484 1483 1482 1473 1473 1463 1466 1470 1473 1475 1475 1475 1474 1474 1474 1474 1474 1475 1475 1475 1476 1477 1478 1479 1480 1480 1480 1481 1482 1483 1484 1484 1485 1486 1487
1461 1463 1465 1467 1471 1477 1477 1480 1482 1483 1481 1472 1476 1474 1463 1467 1471 1473 1474 1475 1475 1474 1474 1473 1473 1473 1473 1473 1473 1473 1473 1474 1474 1474 1474 1474 1475 1475 1475 1476 1477 1477 1478 1478
1456 1463 1466 1467 1468 1471 1473 1473 1472 1469 1467 1466 1479 1471 1464 1470 1473 1474 1475 1475 1475 1474 1473 1472 1472 1471 1471 1471 1471 1470 1470 1470 1469 1469 1469 1469 1468 1468 1468 1469 1469 1469 1470 1471
1450 1462 1467 1468 1469 1470 1473 1473 1473 1471 1474 1469 1464 1467 1468 1471 1472 1474 1475 1475 1474 1473 1472 1471 1470 1470 1469 1469 1468 1467 1467 1466 1465 1464 1463 1463 1462 1462 1461 1461 1462 1462 1463 1464
1451 1461 1467 1469 1470 1473 1472 1472 1475 1474 1470 1461 1459 1459 1458 1467 1469 1471 1473 1473 1473 1472 1471 1470 1469 1468 1467 1466 1465 1464 1463 1462 1461 1460 1458 1457 1456 1455 1455 1454 1454 1455 1455 1456
1453 1458 1468 1469 1469 1470 1474 1475 1472 1469 1469 1463 1455 1455 1456 1461 1465 1469 1471 1472 1472 1471 1470 1469 1467 1466 1465 1464 1463 1461 1460 1459 1457 1455 1454 1452 1451 1450 1448 1448 1448 1448 1449 1449
1455 1456 1464 1469 1471 1470 1468 1468 1469 1469 1472 1471 1462 1460 1461 1462 1466 1469 1470 1471 1470 1469 1468 1467 1466 1464 1463 1461 1460 1458 1457 1455 1454 1452 1450 1448 1446 1445 1444 1443 1443 1443 1443 1444
1453 1456 1462 1467 1473 1472 1468 1469 1469 1469 1471 1470 1462 1460 1463 1464 1467 1468 1469 1469 1468 1467 1466 1465 1464 1462 1461 1459 1457 1456 1454 1452 1451 1449 1447 1445 1443 1442 1440 1440 1439 1439 1439 1440
1453 1453 1453 1453 1453 1460 1464 1466 1468 1468 1468 1465 1462 1459 1461 1463 1465 1466 1466 1466 1465 1465 1464 1463 1461 1460 1458 1456 1455 1453 1452 1450 1448 1447 1445 1443 1441 1440 1439 1438 1437 1437 1437 1438
1453 1454 1456 1457 1459 1460 1460 1462 1465 1465 1462 1462 1458 1461 1458 1460 1462 1463 1463 1463 1462 1462 1461 1460 1458 1457 1455 1454 1453 1451 1450 1448 1446 1445 1443 1441 1440 1439 1438 1438 1437 1437 1437 1438
1454 1455 1457 1459 1461 1461 1461 1460 1461 1462 1461 1461 1461 1460 1456 1459 1461 1460 1460 1459 1459 1459 1458 1457 1456 1455 1453 1452 1451 1450 1448 1447 1446 1444 1442 1441 1440 1440 1439 1438 1438 1438 1438 1439
1454 1455 1457 1457 1461 1460 1456 1452 1455 1457 1456 1457 1458 1455 1455 1457 1457 1457 1457 1456 1456 1456 1455 1454 1453 1452 1451 1450 1449 1448 1447 1446 1445 1444 1443 1442 1441 1440 1440 1440 1439 1440 1440 1441
1455 1455 1457 1458 1460 1460 1449 1450 1450 1452 1452 1454 1453 1453 1454 1455 1455 1454 1454 1454 1453 1453 1452 1451 1451 1450 1450 1449 1448 1447 1446 1446 1445 1444 1443 1443 1442 1442 1442 1442 1442 1442 1443 1444
1455 1456 1457 1457 1454 1449 1447 1449 1450 1451 1449 1449 1451 1451 1452 1453 1452 1451 1451 1451 1451 1450 1450 1449 1449 1448 1448 1448 1447 1447 1446 1446 1445 1445 1444 1444 1444 1444 1444 1444 1444 1445 1446 1447
1457 1457 1457 1457 1455 1449 1446 1448 1449 1451 1447 1448 1449 1449 1450 1451 1448 1448 1449 1448 1448 1448 1447 1447 1447 1447 1447 1447 1446 1446 1446 1446 1446 1446 1446 1446 1446 1446 1447 1447 1447 1448 1449 1450
1457 1457 1456 1455 1453 1445 1445 1448 1450 1450 1446 1448 1448 1448 1448 1448 1448 1448 1447 1446 1446 1446 1445 1445 1445 1446 1446 1446 1446 1446 1446 1446 1446 1447 1447 1448 1448 1449 1449 1450 1451 1451 1452 1453
1451 1451 1452 1451 1451 1448 1446 1447 1447 1446 1447 1447 1447 1447 1447 1446 1445 1445 1444 1444 1443 1443 1443 1444 1444 1444 1445 1445 1446 1446 1446 1447 1447 1448 1449 1449 1450 1451 1452 1453 1453 1454 1455 1455
1447 1446 1445 1446 1446 1445 1446 1446 1447 1446 1446 1446 1446 1445 1444 1443 1443 1442 1442 1441 1441 1441 1442 1442 1443 1444 1444 1445 1446 1446 1447 1447 1448 1449 1450 1451 1453 1454 1455 1455 1456 1457 1457 1458
1446 1448 1447 1445 1443 1444 1445 1445 1445 1444 1444 1444 1443 1442 1442 1441 1440 1439 1439 1439 1439 1439 1440 1441 1442 1442 1443 1444 1445 1446 1447 1448 1450 1451 1452 1453 1455 1456 1456 1457 1458 1458 1459 1459
1442 1445 1444 1442 1442 1442 1442 1443 1443 1443 1442 1442 1441 1440 1439 1438 1437 1436 1436 1436 1437 1437 1438 1439 1440 1441 1442 1444 1445 1446 1448 1449 1451 1452 1454 1455 1456 1457 1458 1458 1459 1459 1459 1460
1441 1441 1440 1438 1440 1441 1441 1441 1441 1441 1440 1439 1438 1437 1436 1435 1434 1434 1433 1434 1434 1435 1436 1437 1438 1440 1441 1443 1445 1446 1448 1450 1452 1453 1454 1456 1457 1458 1459 1459 1459 1459 1459 1459